Location: Les Salelles
(44.4192°N, 4.1044°E)
Time: 15:12:06
(UTC+00:00)

SKYMED 2 - Pass Details

Date: 20 January 2021
Orbit: 621 x 623 km, 97.9° (Epoch: 26 February)

Event Time Altitude Azimuth Distance (km) Brightness Sun altitude
Rises 17:07:59 0° 23° (NNE) 2,914 6.6 -5.9°
Reaches altitude 10° 17:10:26 10° 34° (NE) 2,002 5.7 -6.3°
Maximum altitude 17:14:15 29° 96° (E) 1,142 4.5 -6.9°
Drops below altitude 10° 17:18:01 10° 157° (SSE) 1,986 6.1 -7.6°
Sets 17:20:26 0° 168° (SSE) 2,887 7.1 -8.0°
